Multibeam Report for NBP1210


Ship Name: Nathaniel B. Palmer
Chief Scientist: Halanych, Kenneth
Auburn University
Source Organization: Marine Geoscience Data System (MGDS)
Start Date: 2013-01-06
End Date: 2013-02-09


View ISO Metadata

Visit the full NCEI Bathymetry Viewer


Multibeam Bathymetry

Cruise Details

Project:
Instrument: Kongsberg EM120

Data Quality

Number of Files: 643
Number of Records: 520863
BATHYMETRY DATA Quantity Percentage
Number of Beams 99484833 100%
Number of Good Beams 92105312 92.58%
Number of Zero Beams 7379521 7.42%
Number of Flagged Beams 0 0%
AMPLITUDE DATA Quantity Percentage
Number of Beams 99484833 100%
Number of Good Beams 92105312 92.58%
Number of Zero Beams 7379521 7.42%
Number of Flagged Beams 0 0%
SIDESCAN DATA Quantity Percentage
Number of Pixels 533363712 100%
Number of Good Pixels 399144253 74.84%
Number of Zero Pixels 0 0%
Number of Flagged Pixels 134219459 25.16%

Navigation Totals

Total Time: 620.163 hours
Total Track Length: 8207.7615 km
Average Speed: 13.235 km/hr (7.1463 knots)

Cruise Bounds

Northern Extent: -63.604992
Southern Extent: -78.358154
Western Extent: 165.53522
Eastern Extent: -83.64113

Limits

Minimum Sonar Depth 6.45 Maximum Sonar Depth 7.96
Minimum Altitude 0 Maximum Altitude 7155.2002
Minimum Depth 144.67 Maximum Depth 7587.77
Minimum Amplitude 0 Maximum Amplitude 27.5
Minimum Sidescan 0 Maximum Sidescan 63

File Information

Full Resolution Bathymetry as collected (raw): 640

Files File Size Description
0000_20130112_135955_raw.all.mb56.gz 8.32MB Simrad multibeam vendor format
0001_20130112_145955_raw.all.mb56.gz 8.30MB Simrad multibeam vendor format
0002_20130112_155955_raw.all.mb56.gz 8.38MB Simrad multibeam vendor format
0003_20130112_165955_raw.all.mb56.gz 5.54MB Simrad multibeam vendor format
0004_20130112_174020_raw.all.mb56.gz 189.7KB Simrad multibeam vendor format
0005_20130112_174138_raw.all.mb56.gz 66.3KB Simrad multibeam vendor format
0006_20130112_174203_raw.all.mb56.gz 8.44MB Simrad multibeam vendor format
0007_20130112_184203_raw.all.mb56.gz 8.47MB Simrad multibeam vendor format
0008_20130112_194203_raw.all.mb56.gz 8.46MB Simrad multibeam vendor format
0009_20130112_204203_raw.all.mb56.gz 8.50MB Simrad multibeam vendor format
0010_20130112_214203_raw.all.mb56.gz 8.51MB Simrad multibeam vendor format
0011_20130112_224203_raw.all.mb56.gz 8.54MB Simrad multibeam vendor format
0012_20130112_234203_raw.all.mb56.gz 8.55MB Simrad multibeam vendor format
0013_20130113_004203_raw.all.mb56.gz 8.51MB Simrad multibeam vendor format
0014_20130113_014203_raw.all.mb56.gz 8.52MB Simrad multibeam vendor format
0015_20130113_024203_raw.all.mb56.gz 8.54MB Simrad multibeam vendor format
0016_20130113_034203_raw.all.mb56.gz 8.53MB Simrad multibeam vendor format
0017_20130113_044203_raw.all.mb56.gz 8.54MB Simrad multibeam vendor format
0018_20130113_054203_raw.all.mb56.gz 8.57MB Simrad multibeam vendor format
0019_20130113_064203_raw.all.mb56.gz 8.57MB Simrad multibeam vendor format
0020_20130113_074203_raw.all.mb56.gz 8.57MB Simrad multibeam vendor format
0021_20130113_084203_raw.all.mb56.gz 8.57MB Simrad multibeam vendor format
0022_20130113_094203_raw.all.mb56.gz 8.59MB Simrad multibeam vendor format
0023_20130113_104203_raw.all.mb56.gz 8.58MB Simrad multibeam vendor format
0024_20130113_114203_raw.all.mb56.gz 8.54MB Simrad multibeam vendor format
0025_20130113_124203_raw.all.mb56.gz 3.50MB Simrad multibeam vendor format
0026_20130113_130637_raw.all.mb56.gz 96.8KB Simrad multibeam vendor format
0027_20130113_130715_raw.all.mb56.gz 8.56MB Simrad multibeam vendor format
0028_20130113_140715_raw.all.mb56.gz 8.54MB Simrad multibeam vendor format
0029_20130113_150715_raw.all.mb56.gz 8.58MB Simrad multibeam vendor format
0030_20130113_160715_raw.all.mb56.gz 8.59MB Simrad multibeam vendor format
0031_20130113_170715_raw.all.mb56.gz 8.56MB Simrad multibeam vendor format
0032_20130113_180715_raw.all.mb56.gz 8.51MB Simrad multibeam vendor format
0033_20130113_190715_raw.all.mb56.gz 8.53MB Simrad multibeam vendor format
0034_20130113_200715_raw.all.mb56.gz 8.54MB Simrad multibeam vendor format
0035_20130113_210715_raw.all.mb56.gz 8.52MB Simrad multibeam vendor format
0036_20130113_220715_raw.all.mb56.gz 8.61MB Simrad multibeam vendor format
0037_20130113_230715_raw.all.mb56.gz 8.57MB Simrad multibeam vendor format
0038_20130114_000715_raw.all.mb56.gz 9.15MB Simrad multibeam vendor format
0039_20130114_010715_raw.all.mb56.gz 13.40MB Simrad multibeam vendor format
0040_20130114_020715_raw.all.mb56.gz 4.25MB Simrad multibeam vendor format
0041_20130114_022643_raw.all.mb56.gz 13.20MB Simrad multibeam vendor format
0042_20130114_032643_raw.all.mb56.gz 16.54MB Simrad multibeam vendor format
0043_20130114_042643_raw.all.mb56.gz 13.93MB Simrad multibeam vendor format
0044_20130114_052643_raw.all.mb56.gz 16.14MB Simrad multibeam vendor format
0045_20130114_062643_raw.all.mb56.gz 14.07MB Simrad multibeam vendor format
0046_20130114_072643_raw.all.mb56.gz 13.84MB Simrad multibeam vendor format
0047_20130114_082643_raw.all.mb56.gz 12.70MB Simrad multibeam vendor format
0048_20130114_092643_raw.all.mb56.gz 8.96MB Simrad multibeam vendor format
0049_20130114_102643_raw.all.mb56.gz 5.60MB Simrad multibeam vendor format
0050_20130114_110537_raw.all.mb56.gz 8.45MB Simrad multibeam vendor format
0051_20130114_120537_raw.all.mb56.gz 8.25MB Simrad multibeam vendor format
0052_20130114_130537_raw.all.mb56.gz 8.47MB Simrad multibeam vendor format
0053_20130114_140537_raw.all.mb56.gz 8.58MB Simrad multibeam vendor format
0054_20130114_150537_raw.all.mb56.gz 8.41MB Simrad multibeam vendor format
0055_20130114_160537_raw.all.mb56.gz 8.61MB Simrad multibeam vendor format
0056_20130114_170537_raw.all.mb56.gz 8.17MB Simrad multibeam vendor format
0057_20130114_180537_raw.all.mb56.gz 8.36MB Simrad multibeam vendor format
0058_20130114_190537_raw.all.mb56.gz 8.39MB Simrad multibeam vendor format
0059_20130114_200537_raw.all.mb56.gz 8.40MB Simrad multibeam vendor format
0060_20130114_210537_raw.all.mb56.gz 8.68MB Simrad multibeam vendor format
0061_20130114_220537_raw.all.mb56.gz 8.08MB Simrad multibeam vendor format
0062_20130114_230537_raw.all.mb56.gz 8.37MB Simrad multibeam vendor format
0063_20130115_000537_raw.all.mb56.gz 8.52MB Simrad multibeam vendor format
0064_20130115_010537_raw.all.mb56.gz 8.61MB Simrad multibeam vendor format
0065_20130115_020537_raw.all.mb56.gz 8.88MB Simrad multibeam vendor format
0066_20130115_030537_raw.all.mb56.gz 17.31MB Simrad multibeam vendor format
0067_20130115_040537_raw.all.mb56.gz 4.95MB Simrad multibeam vendor format
0067_20130115_042407_raw.all.mb56.gz 3.22MB Simrad multibeam vendor format
0068_20130115_043346_raw.all.mb56.gz 20.49MB Simrad multibeam vendor format
0069_20130115_053346_raw.all.mb56.gz 20.24MB Simrad multibeam vendor format
0070_20130115_063346_raw.all.mb56.gz 20.50MB Simrad multibeam vendor format
0071_20130115_073346_raw.all.mb56.gz 20.39MB Simrad multibeam vendor format
0072_20130115_083346_raw.all.mb56.gz 20.57MB Simrad multibeam vendor format
0073_20130115_093346_raw.all.mb56.gz 20.27MB Simrad multibeam vendor format
0074_20130115_103346_raw.all.mb56.gz 19.90MB Simrad multibeam vendor format
0075_20130115_113346_raw.all.mb56.gz 20.04MB Simrad multibeam vendor format
0076_20130115_123346_raw.all.mb56.gz 20.61MB Simrad multibeam vendor format
0077_20130115_133346_raw.all.mb56.gz 20.18MB Simrad multibeam vendor format
0078_20130115_143346_raw.all.mb56.gz 10.18MB Simrad multibeam vendor format
0079_20130115_150414_raw.all.mb56.gz 6.12MB Simrad multibeam vendor format
0080_20130115_153249_raw.all.mb56.gz 20.27MB Simrad multibeam vendor format
0081_20130115_163249_raw.all.mb56.gz 20.08MB Simrad multibeam vendor format
0082_20130115_173249_raw.all.mb56.gz 20.29MB Simrad multibeam vendor format
0083_20130115_183249_raw.all.mb56.gz 20.40MB Simrad multibeam vendor format
0084_20130115_193249_raw.all.mb56.gz 20.62MB Simrad multibeam vendor format
0085_20130115_203249_raw.all.mb56.gz 20.98MB Simrad multibeam vendor format
0086_20130115_213249_raw.all.mb56.gz 20.23MB Simrad multibeam vendor format
0087_20130115_223249_raw.all.mb56.gz 18.34MB Simrad multibeam vendor format
0088_20130115_233249_raw.all.mb56.gz 17.63MB Simrad multibeam vendor format
0089_20130116_003249_raw.all.mb56.gz 17.47MB Simrad multibeam vendor format
0090_20130116_013249_raw.all.mb56.gz 17.49MB Simrad multibeam vendor format
0091_20130116_023249_raw.all.mb56.gz 17.74MB Simrad multibeam vendor format
0092_20130116_033249_raw.all.mb56.gz 17.78MB Simrad multibeam vendor format
0093_20130116_043249_raw.all.mb56.gz 17.81MB Simrad multibeam vendor format
0094_20130116_053249_raw.all.mb56.gz 18.29MB Simrad multibeam vendor format
0095_20130116_063249_raw.all.mb56.gz 18.59MB Simrad multibeam vendor format
0096_20130116_073249_raw.all.mb56.gz 19.24MB Simrad multibeam vendor format
0097_20130116_083249_raw.all.mb56.gz 19.30MB Simrad multibeam vendor format
0098_20130116_093249_raw.all.mb56.gz 19.78MB Simrad multibeam vendor format
0099_20130116_103249_raw.all.mb56.gz 19.38MB Simrad multibeam vendor format
0100_20130116_113249_raw.all.mb56.gz 20.12MB Simrad multibeam vendor format
0101_20130116_123249_raw.all.mb56.gz 20.37MB Simrad multibeam vendor format
0102_20130116_133249_raw.all.mb56.gz 16.37MB Simrad multibeam vendor format
0103_20130116_142058_raw.all.mb56.gz 479.4KB Simrad multibeam vendor format
0104_20130116_142221_raw.all.mb56.gz 19.69MB Simrad multibeam vendor format
0105_20130116_152221_raw.all.mb56.gz 19.71MB Simrad multibeam vendor format
0106_20130116_162220_raw.all.mb56.gz 19.20MB Simrad multibeam vendor format
0107_20130116_172220_raw.all.mb56.gz 19.08MB Simrad multibeam vendor format
0108_20130116_182220_raw.all.mb56.gz 18.83MB Simrad multibeam vendor format
0109_20130116_192220_raw.all.mb56.gz 19.15MB Simrad multibeam vendor format
0110_20130116_202220_raw.all.mb56.gz 19.18MB Simrad multibeam vendor format
0111_20130116_212220_raw.all.mb56.gz 19.35MB Simrad multibeam vendor format
0112_20130116_222220_raw.all.mb56.gz 19.58MB Simrad multibeam vendor format
0113_20130116_232220_raw.all.mb56.gz 19.59MB Simrad multibeam vendor format
0114_20130117_002220_raw.all.mb56.gz 19.32MB Simrad multibeam vendor format
0115_20130117_012220_raw.all.mb56.gz 19.65MB Simrad multibeam vendor format
0116_20130117_022220_raw.all.mb56.gz 19.17MB Simrad multibeam vendor format
0117_20130117_032220_raw.all.mb56.gz 19.19MB Simrad multibeam vendor format
0118_20130117_042220_raw.all.mb56.gz 18.60MB Simrad multibeam vendor format
0119_20130117_052220_raw.all.mb56.gz 19.53MB Simrad multibeam vendor format
0120_20130117_062220_raw.all.mb56.gz 20.20MB Simrad multibeam vendor format
0121_20130117_072220_raw.all.mb56.gz 19.04MB Simrad multibeam vendor format
0122_20130117_082220_raw.all.mb56.gz 19.51MB Simrad multibeam vendor format
0123_20130117_092220_raw.all.mb56.gz 19.52MB Simrad multibeam vendor format
0124_20130117_102220_raw.all.mb56.gz 5.89MB Simrad multibeam vendor format
0125_20130117_103959_raw.all.mb56.gz 20.52MB Simrad multibeam vendor format
0126_20130117_113959_raw.all.mb56.gz 19.19MB Simrad multibeam vendor format
0127_20130117_123959_raw.all.mb56.gz 15.77MB Simrad multibeam vendor format
0128_20130117_133959_raw.all.mb56.gz 17.34MB Simrad multibeam vendor format
0129_20130117_143959_raw.all.mb56.gz 15.01MB Simrad multibeam vendor format
0130_20130117_153959_raw.all.mb56.gz 18.63MB Simrad multibeam vendor format
0131_20130117_163959_raw.all.mb56.gz 19.38MB Simrad multibeam vendor format
0132_20130117_173959_raw.all.mb56.gz 19.40MB Simrad multibeam vendor format
0133_20130117_183959_raw.all.mb56.gz 19.14MB Simrad multibeam vendor format
0134_20130117_193959_raw.all.mb56.gz 19.16MB Simrad multibeam vendor format
0135_20130117_203959_raw.all.mb56.gz 19.44MB Simrad multibeam vendor format
0136_20130117_213959_raw.all.mb56.gz 19.59MB Simrad multibeam vendor format
0137_20130117_223959_raw.all.mb56.gz 19.74MB Simrad multibeam vendor format
0138_20130117_233959_raw.all.mb56.gz 20.42MB Simrad multibeam vendor format
0139_20130118_003959_raw.all.mb56.gz 20.46MB Simrad multibeam vendor format
0140_20130118_013959_raw.all.mb56.gz 20.87MB Simrad multibeam vendor format
0141_20130118_023959_raw.all.mb56.gz 19.65MB Simrad multibeam vendor format
0142_20130118_033959_raw.all.mb56.gz 17.64MB Simrad multibeam vendor format
0143_20130118_043959_raw.all.mb56.gz 17.62MB Simrad multibeam vendor format
0144_20130118_053959_raw.all.mb56.gz 17.80MB Simrad multibeam vendor format
0145_20130118_063959_raw.all.mb56.gz 18.13MB Simrad multibeam vendor format
0146_20130118_073959_raw.all.mb56.gz 18.04MB Simrad multibeam vendor format
0147_20130118_083959_raw.all.mb56.gz 18.14MB Simrad multibeam vendor format
0148_20130118_093959_raw.all.mb56.gz 18.48MB Simrad multibeam vendor format
0149_20130118_103959_raw.all.mb56.gz 18.11MB Simrad multibeam vendor format
0150_20130118_113959_raw.all.mb56.gz 18.39MB Simrad multibeam vendor format
0151_20130118_123959_raw.all.mb56.gz 18.41MB Simrad multibeam vendor format
0152_20130118_133959_raw.all.mb56.gz 18.24MB Simrad multibeam vendor format
0153_20130118_143959_raw.all.mb56.gz 18.09MB Simrad multibeam vendor format
0154_20130118_153959_raw.all.mb56.gz 18.70MB Simrad multibeam vendor format
0155_20130118_163959_raw.all.mb56.gz 19.18MB Simrad multibeam vendor format
0156_20130118_173959_raw.all.mb56.gz 18.22MB Simrad multibeam vendor format
0157_20130118_183959_raw.all.mb56.gz 18.83MB Simrad multibeam vendor format
0158_20130118_193959_raw.all.mb56.gz 18.17MB Simrad multibeam vendor format
0159_20130118_203959_raw.all.mb56.gz 18.29MB Simrad multibeam vendor format
0160_20130118_213959_raw.all.mb56.gz 18.41MB Simrad multibeam vendor format
0161_20130118_223959_raw.all.mb56.gz 19.17MB Simrad multibeam vendor format
0162_20130118_233959_raw.all.mb56.gz 19.14MB Simrad multibeam vendor format
0163_20130119_003958_raw.all.mb56.gz 18.20MB Simrad multibeam vendor format
0164_20130119_013958_raw.all.mb56.gz 14.99MB Simrad multibeam vendor format
0165_20130119_023958_raw.all.mb56.gz 16.46MB Simrad multibeam vendor format
0166_20130119_033958_raw.all.mb56.gz 19.05MB Simrad multibeam vendor format
0167_20130119_043958_raw.all.mb56.gz 5.78MB Simrad multibeam vendor format
0168_20130119_050251_raw.all.mb56.gz 17.35MB Simrad multibeam vendor format
0169_20130119_060250_raw.all.mb56.gz 14.85MB Simrad multibeam vendor format
0170_20130119_070250_raw.all.mb56.gz 14.28MB Simrad multibeam vendor format
0171_20130119_080250_raw.all.mb56.gz 16.46MB Simrad multibeam vendor format
0172_20130119_090250_raw.all.mb56.gz 19.46MB Simrad multibeam vendor format
0173_20130119_100250_raw.all.mb56.gz 18.03MB Simrad multibeam vendor format
0174_20130119_110250_raw.all.mb56.gz 16.79MB Simrad multibeam vendor format
0175_20130119_120250_raw.all.mb56.gz 14.37MB Simrad multibeam vendor format
0176_20130119_130250_raw.all.mb56.gz 13.72MB Simrad multibeam vendor format
0177_20130119_140254_raw.all.mb56.gz 4.17MB Simrad multibeam vendor format
0178_20130119_142140_raw.all.mb56.gz 14.14MB Simrad multibeam vendor format
0179_20130119_152139_raw.all.mb56.gz 20.45MB Simrad multibeam vendor format
0180_20130119_162140_raw.all.mb56.gz 17.30MB Simrad multibeam vendor format
0181_20130119_172139_raw.all.mb56.gz 15.48MB Simrad multibeam vendor format
0182_20130119_182139_raw.all.mb56.gz 18.22MB Simrad multibeam vendor format
0183_20130119_192139_raw.all.mb56.gz 17.34MB Simrad multibeam vendor format
0184_20130119_202139_raw.all.mb56.gz 24.62MB Simrad multibeam vendor format
0185_20130119_212139_raw.all.mb56.gz 20.68MB Simrad multibeam vendor format
0186_20130119_222139_raw.all.mb56.gz 18.24MB Simrad multibeam vendor format
0187_20130119_232139_raw.all.mb56.gz 17.56MB Simrad multibeam vendor format
0188_20130120_002139_raw.all.mb56.gz 18.17MB Simrad multibeam vendor format
0189_20130120_012139_raw.all.mb56.gz 18.65MB Simrad multibeam vendor format
0190_20130120_022139_raw.all.mb56.gz 21.71MB Simrad multibeam vendor format
0191_20130120_032139_raw.all.mb56.gz 20.51MB Simrad multibeam vendor format
0192_20130120_042139_raw.all.mb56.gz 18.39MB Simrad multibeam vendor format
0193_20130120_052139_raw.all.mb56.gz 17.97MB Simrad multibeam vendor format
0194_20130120_062139_raw.all.mb56.gz 17.56MB Simrad multibeam vendor format
0195_20130120_072139_raw.all.mb56.gz 17.81MB Simrad multibeam vendor format
0196_20130120_082139_raw.all.mb56.gz 18.14MB Simrad multibeam vendor format
0197_20130120_092139_raw.all.mb56.gz 17.80MB Simrad multibeam vendor format
0198_20130120_102139_raw.all.mb56.gz 18.43MB Simrad multibeam vendor format
0199_20130120_112139_raw.all.mb56.gz 17.62MB Simrad multibeam vendor format
0200_20130120_122139_raw.all.mb56.gz 10.74MB Simrad multibeam vendor format
0201_20130120_130146_raw.all.mb56.gz 16.48MB Simrad multibeam vendor format
0202_20130120_140146_raw.all.mb56.gz 17.31MB Simrad multibeam vendor format
0203_20130120_150146_raw.all.mb56.gz 17.70MB Simrad multibeam vendor format
0204_20130120_160146_raw.all.mb56.gz 16.96MB Simrad multibeam vendor format
0205_20130120_170146_raw.all.mb56.gz 17.34MB Simrad multibeam vendor format
0206_20130120_180146_raw.all.mb56.gz 6.70MB Simrad multibeam vendor format
0207_20130120_182517_raw.all.mb56.gz 1.87MB Simrad multibeam vendor format
0208_20130120_191718_raw.all.mb56.gz 16.01MB Simrad multibeam vendor format
0209_20130120_201718_raw.all.mb56.gz 15.89MB Simrad multibeam vendor format
0210_20130120_211718_raw.all.mb56.gz 16.17MB Simrad multibeam vendor format
0211_20130120_221718_raw.all.mb56.gz 12.96MB Simrad multibeam vendor format
0212_20130120_231718_raw.all.mb56.gz 10.45MB Simrad multibeam vendor format
0213_20130121_001718_raw.all.mb56.gz 9.87MB Simrad multibeam vendor format
0214_20130121_011718_raw.all.mb56.gz 9.35MB Simrad multibeam vendor format
0215_20130121_021718_raw.all.mb56.gz 9.35MB Simrad multibeam vendor format
0216_20130121_031718_raw.all.mb56.gz 9.38MB Simrad multibeam vendor format
0217_20130121_041718_raw.all.mb56.gz 9.11MB Simrad multibeam vendor format
0218_20130121_051718_raw.all.mb56.gz 9.24MB Simrad multibeam vendor format
0219_20130121_061718_raw.all.mb56.gz 9.32MB Simrad multibeam vendor format
0220_20130121_071718_raw.all.mb56.gz 9.52MB Simrad multibeam vendor format
0221_20130121_081718_raw.all.mb56.gz 9.14MB Simrad multibeam vendor format
0222_20130121_091718_raw.all.mb56.gz 9.27MB Simrad multibeam vendor format
0223_20130121_101718_raw.all.mb56.gz 8.97MB Simrad multibeam vendor format
0224_20130121_111718_raw.all.mb56.gz 9.02MB Simrad multibeam vendor format
0225_20130121_121718_raw.all.mb56.gz 9.40MB Simrad multibeam vendor format
0226_20130121_131718_raw.all.mb56.gz 13.10MB Simrad multibeam vendor format
0227_20130121_141718_raw.all.mb56.gz 18.32MB Simrad multibeam vendor format
0228_20130121_151718_raw.all.mb56.gz 13.72MB Simrad multibeam vendor format
0229_20130121_160514_raw.all.mb56.gz 15.47MB Simrad multibeam vendor format
0230_20130121_170514_raw.all.mb56.gz 17.09MB Simrad multibeam vendor format
0231_20130121_180514_raw.all.mb56.gz 10.62MB Simrad multibeam vendor format
0232_20130121_190514_raw.all.mb56.gz 9.32MB Simrad multibeam vendor format
0233_20130121_200514_raw.all.mb56.gz 9.30MB Simrad multibeam vendor format
0234_20130121_210514_raw.all.mb56.gz 8.85MB Simrad multibeam vendor format
0235_20130121_220514_raw.all.mb56.gz 9.39MB Simrad multibeam vendor format
0236_20130121_230514_raw.all.mb56.gz 9.75MB Simrad multibeam vendor format
0237_20130122_000514_raw.all.mb56.gz 9.48MB Simrad multibeam vendor format
0238_20130122_010514_raw.all.mb56.gz 9.35MB Simrad multibeam vendor format
0239_20130122_020514_raw.all.mb56.gz 8.78MB Simrad multibeam vendor format
0240_20130122_030514_raw.all.mb56.gz 8.96MB Simrad multibeam vendor format
0241_20130122_040514_raw.all.mb56.gz 9.00MB Simrad multibeam vendor format
0242_20130122_050514_raw.all.mb56.gz 9.03MB Simrad multibeam vendor format
0243_20130122_060514_raw.all.mb56.gz 5.37MB Simrad multibeam vendor format
0244_20130122_064002_raw.all.mb56.gz 9.23MB Simrad multibeam vendor format
0245_20130122_074002_raw.all.mb56.gz 9.23MB Simrad multibeam vendor format
0246_20130122_084002_raw.all.mb56.gz 9.26MB Simrad multibeam vendor format
0247_20130122_094002_raw.all.mb56.gz 9.20MB Simrad multibeam vendor format
0248_20130122_104001_raw.all.mb56.gz 9.23MB Simrad multibeam vendor format
0249_20130122_114001_raw.all.mb56.gz 9.19MB Simrad multibeam vendor format
0250_20130122_124001_raw.all.mb56.gz 9.15MB Simrad multibeam vendor format
0251_20130122_134001_raw.all.mb56.gz 8.83MB Simrad multibeam vendor format
0252_20130122_144001_raw.all.mb56.gz 8.99MB Simrad multibeam vendor format
0253_20130122_154001_raw.all.mb56.gz 9.19MB Simrad multibeam vendor format
0254_20130122_164001_raw.all.mb56.gz 9.29MB Simrad multibeam vendor format
0255_20130122_174001_raw.all.mb56.gz 9.06MB Simrad multibeam vendor format
0256_20130122_184001_raw.all.mb56.gz 9.05MB Simrad multibeam vendor format
0257_20130122_194001_raw.all.mb56.gz 9.03MB Simrad multibeam vendor format
0258_20130122_204001_raw.all.mb56.gz 9.14MB Simrad multibeam vendor format
0259_20130122_214001_raw.all.mb56.gz 8.94MB Simrad multibeam vendor format
0260_20130122_224001_raw.all.mb56.gz 9.06MB Simrad multibeam vendor format
0261_20130122_234001_raw.all.mb56.gz 8.88MB Simrad multibeam vendor format
0262_20130123_004001_raw.all.mb56.gz 8.89MB Simrad multibeam vendor format
0263_20130123_014001_raw.all.mb56.gz 9.07MB Simrad multibeam vendor format
0264_20130123_024001_raw.all.mb56.gz 8.95MB Simrad multibeam vendor format
0265_20130123_034001_raw.all.mb56.gz 8.83MB Simrad multibeam vendor format
0266_20130123_044001_raw.all.mb56.gz 8.77MB Simrad multibeam vendor format
0267_20130123_054001_raw.all.mb56.gz 8.88MB Simrad multibeam vendor format
0268_20130123_064001_raw.all.mb56.gz 8.81MB Simrad multibeam vendor format
0269_20130123_074001_raw.all.mb56.gz 8.83MB Simrad multibeam vendor format
0270_20130123_084001_raw.all.mb56.gz 8.63MB Simrad multibeam vendor format
0271_20130123_094001_raw.all.mb56.gz 8.70MB Simrad multibeam vendor format
0272_20130123_104001_raw.all.mb56.gz 8.73MB Simrad multibeam vendor format
0273_20130123_114001_raw.all.mb56.gz 8.66MB Simrad multibeam vendor format
0274_20130123_124001_raw.all.mb56.gz 8.81MB Simrad multibeam vendor format
0275_20130123_134001_raw.all.mb56.gz 8.76MB Simrad multibeam vendor format
0276_20130123_144001_raw.all.mb56.gz 8.54MB Simrad multibeam vendor format
0277_20130123_154001_raw.all.mb56.gz 9.21MB Simrad multibeam vendor format
0278_20130123_164001_raw.all.mb56.gz 8.95MB Simrad multibeam vendor format
0279_20130123_174001_raw.all.mb56.gz 8.83MB Simrad multibeam vendor format
0280_20130123_184001_raw.all.mb56.gz 8.86MB Simrad multibeam vendor format
0281_20130123_194001_raw.all.mb56.gz 8.80MB Simrad multibeam vendor format
0282_20130123_204001_raw.all.mb56.gz 9.16MB Simrad multibeam vendor format
0283_20130123_214001_raw.all.mb56.gz 8.89MB Simrad multibeam vendor format
0284_20130123_224001_raw.all.mb56.gz 8.86MB Simrad multibeam vendor format
0285_20130123_234001_raw.all.mb56.gz 8.88MB Simrad multibeam vendor format
0286_20130124_004001_raw.all.mb56.gz 8.84MB Simrad multibeam vendor format
0287_20130124_014001_raw.all.mb56.gz 8.96MB Simrad multibeam vendor format
0288_20130124_024001_raw.all.mb56.gz 8.86MB Simrad multibeam vendor format
0289_20130124_034001_raw.all.mb56.gz 8.82MB Simrad multibeam vendor format
0290_20130124_044001_raw.all.mb56.gz 8.41MB Simrad multibeam vendor format
0291_20130124_054002_raw.all.mb56.gz 8.61MB Simrad multibeam vendor format
0292_20130124_064002_raw.all.mb56.gz 8.25MB Simrad multibeam vendor format
0293_20130124_074002_raw.all.mb56.gz 9.02MB Simrad multibeam vendor format
0294_20130124_084002_raw.all.mb56.gz 9.68MB Simrad multibeam vendor format
0295_20130124_094002_raw.all.mb56.gz 9.93MB Simrad multibeam vendor format
0296_20130124_104002_raw.all.mb56.gz 10.07MB Simrad multibeam vendor format
0297_20130124_114002_raw.all.mb56.gz 9.78MB Simrad multibeam vendor format
0298_20130124_124002_raw.all.mb56.gz 9.77MB Simrad multibeam vendor format
0299_20130124_134002_raw.all.mb56.gz 9.55MB Simrad multibeam vendor format
0300_20130124_144002_raw.all.mb56.gz 14.46MB Simrad multibeam vendor format
0301_20130124_154002_raw.all.mb56.gz 19.51MB Simrad multibeam vendor format
0302_20130124_164002_raw.all.mb56.gz 20.06MB Simrad multibeam vendor format
0303_20130124_174004_raw.all.mb56.gz 11.97MB Simrad multibeam vendor format
0304_20130124_181713_raw.all.mb56.gz 20.15MB Simrad multibeam vendor format
0305_20130124_191713_raw.all.mb56.gz 20.06MB Simrad multibeam vendor format
0306_20130124_201713_raw.all.mb56.gz 20.11MB Simrad multibeam vendor format
0307_20130124_211713_raw.all.mb56.gz 19.75MB Simrad multibeam vendor format
0308_20130124_221713_raw.all.mb56.gz 19.95MB Simrad multibeam vendor format
0309_20130124_231713_raw.all.mb56.gz 19.82MB Simrad multibeam vendor format
0310_20130125_001713_raw.all.mb56.gz 19.38MB Simrad multibeam vendor format
0311_20130125_011713_raw.all.mb56.gz 19.39MB Simrad multibeam vendor format
0312_20130125_021713_raw.all.mb56.gz 19.63MB Simrad multibeam vendor format
0313_20130125_031713_raw.all.mb56.gz 19.66MB Simrad multibeam vendor format
0314_20130125_041713_raw.all.mb56.gz 19.64MB Simrad multibeam vendor format
0315_20130125_051713_raw.all.mb56.gz 19.42MB Simrad multibeam vendor format
0316_20130125_061713_raw.all.mb56.gz 19.34MB Simrad multibeam vendor format
0317_20130125_071713_raw.all.mb56.gz 19.27MB Simrad multibeam vendor format
0318_20130125_081713_raw.all.mb56.gz 19.47MB Simrad multibeam vendor format
0319_20130125_091713_raw.all.mb56.gz 19.52MB Simrad multibeam vendor format
0320_20130125_101713_raw.all.mb56.gz 19.49MB Simrad multibeam vendor format
0321_20130125_111713_raw.all.mb56.gz 19.31MB Simrad multibeam vendor format
0322_20130125_121713_raw.all.mb56.gz 19.52MB Simrad multibeam vendor format
0323_20130125_131713_raw.all.mb56.gz 19.55MB Simrad multibeam vendor format
0324_20130125_141713_raw.all.mb56.gz 19.13MB Simrad multibeam vendor format
0325_20130125_151713_raw.all.mb56.gz 18.28MB Simrad multibeam vendor format
0326_20130125_161713_raw.all.mb56.gz 18.01MB Simrad multibeam vendor format
0327_20130125_171713_raw.all.mb56.gz 17.68MB Simrad multibeam vendor format
0328_20130125_181713_raw.all.mb56.gz 17.57MB Simrad multibeam vendor format
0329_20130125_191713_raw.all.mb56.gz 1.93MB Simrad multibeam vendor format
0330_20130125_192407_raw.all.mb56.gz 15.13MB Simrad multibeam vendor format
0331_20130125_202407_raw.all.mb56.gz 15.10MB Simrad multibeam vendor format
0332_20130125_212407_raw.all.mb56.gz 15.46MB Simrad multibeam vendor format
0333_20130125_222407_raw.all.mb56.gz 16.44MB Simrad multibeam vendor format
0334_20130125_232407_raw.all.mb56.gz 16.86MB Simrad multibeam vendor format
0335_20130126_002407_raw.all.mb56.gz 16.32MB Simrad multibeam vendor format
0336_20130126_012407_raw.all.mb56.gz 17.38MB Simrad multibeam vendor format
0337_20130126_022407_raw.all.mb56.gz 18.66MB Simrad multibeam vendor format
0338_20130126_032407_raw.all.mb56.gz 18.10MB Simrad multibeam vendor format
0339_20130126_042407_raw.all.mb56.gz 18.42MB Simrad multibeam vendor format
0340_20130126_052407_raw.all.mb56.gz 18.09MB Simrad multibeam vendor format
0341_20130126_062407_raw.all.mb56.gz 19.32MB Simrad multibeam vendor format
0342_20130126_072407_raw.all.mb56.gz 19.52MB Simrad multibeam vendor format
0343_20130126_082407_raw.all.mb56.gz 19.71MB Simrad multibeam vendor format
0344_20130126_092407_raw.all.mb56.gz 19.82MB Simrad multibeam vendor format
0345_20130126_102407_raw.all.mb56.gz 18.37MB Simrad multibeam vendor format
0345_20130126_113639_raw.all.mb56.gz 12.33MB Simrad multibeam vendor format
0346_20130126_123639_raw.all.mb56.gz 10.42MB Simrad multibeam vendor format
0347_20130126_133643_raw.all.mb56.gz 9.13MB Simrad multibeam vendor format
0348_20130126_143643_raw.all.mb56.gz 9.53MB Simrad multibeam vendor format
0349_20130126_153643_raw.all.mb56.gz 9.98MB Simrad multibeam vendor format
0350_20130126_163643_raw.all.mb56.gz 6.18MB Simrad multibeam vendor format
0351_20130127_003433_raw.all.mb56.gz 9.03MB Simrad multibeam vendor format
0352_20130127_013433_raw.all.mb56.gz 8.92MB Simrad multibeam vendor format
0353_20130127_023433_raw.all.mb56.gz 8.82MB Simrad multibeam vendor format
0354_20130127_033433_raw.all.mb56.gz 8.87MB Simrad multibeam vendor format
0355_20130127_043433_raw.all.mb56.gz 8.91MB Simrad multibeam vendor format
0356_20130127_053433_raw.all.mb56.gz 8.98MB Simrad multibeam vendor format
0357_20130127_063433_raw.all.mb56.gz 8.62MB Simrad multibeam vendor format
0358_20130127_073433_raw.all.mb56.gz 8.64MB Simrad multibeam vendor format
0359_20130127_083433_raw.all.mb56.gz 5.37MB Simrad multibeam vendor format
0360_20130127_091158_raw.all.mb56.gz 8.71MB Simrad multibeam vendor format
0361_20130127_101158_raw.all.mb56.gz 8.67MB Simrad multibeam vendor format
0362_20130127_111158_raw.all.mb56.gz 8.68MB Simrad multibeam vendor format
0363_20130127_121158_raw.all.mb56.gz 8.72MB Simrad multibeam vendor format
0364_20130127_131158_raw.all.mb56.gz 8.65MB Simrad multibeam vendor format
0365_20130127_141158_raw.all.mb56.gz 8.69MB Simrad multibeam vendor format
0366_20130127_151158_raw.all.mb56.gz 8.65MB Simrad multibeam vendor format
0367_20130127_161158_raw.all.mb56.gz 8.71MB Simrad multibeam vendor format
0368_20130127_171158_raw.all.mb56.gz 8.70MB Simrad multibeam vendor format
0369_20130127_181158_raw.all.mb56.gz 8.62MB Simrad multibeam vendor format
0370_20130127_191055_raw.all.mb56.gz 8.82MB Simrad multibeam vendor format
0371_20130127_201055_raw.all.mb56.gz 8.83MB Simrad multibeam vendor format
0372_20130127_211056_raw.all.mb56.gz 8.80MB Simrad multibeam vendor format
0373_20130127_221056_raw.all.mb56.gz 4.32MB Simrad multibeam vendor format
0373_20130127_224608_raw.all.mb56.gz 8.81MB Simrad multibeam vendor format
0374_20130127_234608_raw.all.mb56.gz 8.81MB Simrad multibeam vendor format
0375_20130128_004608_raw.all.mb56.gz 8.83MB Simrad multibeam vendor format
0376_20130128_014608_raw.all.mb56.gz 5.26MB Simrad multibeam vendor format
0377_20130128_022432_raw.all.mb56.gz 8.79MB Simrad multibeam vendor format
0378_20130128_032432_raw.all.mb56.gz 8.79MB Simrad multibeam vendor format
0379_20130128_042432_raw.all.mb56.gz 8.79MB Simrad multibeam vendor format
0380_20130128_052432_raw.all.mb56.gz 8.83MB Simrad multibeam vendor format
0381_20130128_062432_raw.all.mb56.gz 8.78MB Simrad multibeam vendor format
0382_20130128_072432_raw.all.mb56.gz 8.77MB Simrad multibeam vendor format
0383_20130128_082432_raw.all.mb56.gz 5.96MB Simrad multibeam vendor format
0384_20130128_091041_raw.all.mb56.gz 6.73MB Simrad multibeam vendor format
0385_20130128_095706_raw.all.mb56.gz 8.76MB Simrad multibeam vendor format
0386_20130128_105706_raw.all.mb56.gz 8.79MB Simrad multibeam vendor format
0387_20130128_115706_raw.all.mb56.gz 8.82MB Simrad multibeam vendor format
0388_20130128_125706_raw.all.mb56.gz 8.82MB Simrad multibeam vendor format
0389_20130128_135706_raw.all.mb56.gz 8.85MB Simrad multibeam vendor format
0390_20130128_145706_raw.all.mb56.gz 8.79MB Simrad multibeam vendor format
0391_20130128_155706_raw.all.mb56.gz 8.77MB Simrad multibeam vendor format
0392_20130128_165706_raw.all.mb56.gz 8.58MB Simrad multibeam vendor format
0393_20130128_175706_raw.all.mb56.gz 8.79MB Simrad multibeam vendor format
0394_20130128_185706_raw.all.mb56.gz 8.72MB Simrad multibeam vendor format
0395_20130128_195706_raw.all.mb56.gz 8.76MB Simrad multibeam vendor format
0396_20130128_205706_raw.all.mb56.gz 8.77MB Simrad multibeam vendor format
0397_20130128_215706_raw.all.mb56.gz 8.74MB Simrad multibeam vendor format
0398_20130128_225706_raw.all.mb56.gz 8.81MB Simrad multibeam vendor format
0399_20130128_235706_raw.all.mb56.gz 8.80MB Simrad multibeam vendor format
0400_20130129_005706_raw.all.mb56.gz 8.78MB Simrad multibeam vendor format
0401_20130129_015706_raw.all.mb56.gz 8.82MB Simrad multibeam vendor format
0402_20130129_025706_raw.all.mb56.gz 8.79MB Simrad multibeam vendor format
0403_20130129_035706_raw.all.mb56.gz 8.75MB Simrad multibeam vendor format
0404_20130129_045706_raw.all.mb56.gz 8.84MB Simrad multibeam vendor format
0405_20130129_055706_raw.all.mb56.gz 8.81MB Simrad multibeam vendor format
0406_20130129_065706_raw.all.mb56.gz 8.77MB Simrad multibeam vendor format
0407_20130129_075706_raw.all.mb56.gz 8.63MB Simrad multibeam vendor format
0408_20130129_085706_raw.all.mb56.gz 20.45MB Simrad multibeam vendor format
0411_20130129_114115_raw.all.mb56.gz 8.69MB Simrad multibeam vendor format
0412_20130129_124115_raw.all.mb56.gz 8.55MB Simrad multibeam vendor format
0413_20130129_134115_raw.all.mb56.gz 8.88MB Simrad multibeam vendor format
0414_20130129_144115_raw.all.mb56.gz 8.86MB Simrad multibeam vendor format
0415_20130129_154115_raw.all.mb56.gz 8.78MB Simrad multibeam vendor format
0416_20130129_164114_raw.all.mb56.gz 8.70MB Simrad multibeam vendor format
0417_20130129_174114_raw.all.mb56.gz 8.92MB Simrad multibeam vendor format
0418_20130129_184115_raw.all.mb56.gz 8.98MB Simrad multibeam vendor format
0419_20130129_194115_raw.all.mb56.gz 8.32MB Simrad multibeam vendor format
0420_20130129_204115_raw.all.mb56.gz 8.52MB Simrad multibeam vendor format
0421_20130129_214115_raw.all.mb56.gz 8.86MB Simrad multibeam vendor format
0422_20130129_224115_raw.all.mb56.gz 8.40MB Simrad multibeam vendor format
0423_20130129_234115_raw.all.mb56.gz 8.87MB Simrad multibeam vendor format
0424_20130130_004115_raw.all.mb56.gz 9.42MB Simrad multibeam vendor format
0425_20130130_014115_raw.all.mb56.gz 9.53MB Simrad multibeam vendor format
0426_20130130_024115_raw.all.mb56.gz 9.47MB Simrad multibeam vendor format
0427_20130130_034115_raw.all.mb56.gz 9.60MB Simrad multibeam vendor format
0428_20130130_044115_raw.all.mb56.gz 9.35MB Simrad multibeam vendor format
0429_20130130_054115_raw.all.mb56.gz 9.32MB Simrad multibeam vendor format
0430_20130130_064115_raw.all.mb56.gz 9.27MB Simrad multibeam vendor format
0431_20130130_074115_raw.all.mb56.gz 9.06MB Simrad multibeam vendor format
0432_20130130_084115_raw.all.mb56.gz 9.06MB Simrad multibeam vendor format
0433_20130130_094115_raw.all.mb56.gz 9.10MB Simrad multibeam vendor format
0434_20130130_104115_raw.all.mb56.gz 8.91MB Simrad multibeam vendor format
0435_20130130_114115_raw.all.mb56.gz 9.46MB Simrad multibeam vendor format
0436_20130130_124115_raw.all.mb56.gz 9.36MB Simrad multibeam vendor format
0437_20130130_134115_raw.all.mb56.gz 8.79MB Simrad multibeam vendor format
0438_20130130_144115_raw.all.mb56.gz 8.95MB Simrad multibeam vendor format
0439_20130130_154115_raw.all.mb56.gz 9.14MB Simrad multibeam vendor format
0440_20130130_164115_raw.all.mb56.gz 9.60MB Simrad multibeam vendor format
0441_20130130_174115_raw.all.mb56.gz 10.46MB Simrad multibeam vendor format
0442_20130130_184115_raw.all.mb56.gz 9.68MB Simrad multibeam vendor format
0443_20130130_194115_raw.all.mb56.gz 10.06MB Simrad multibeam vendor format
0444_20130130_204115_raw.all.mb56.gz 9.85MB Simrad multibeam vendor format
0445_20130130_214115_raw.all.mb56.gz 9.76MB Simrad multibeam vendor format
0446_20130130_224115_raw.all.mb56.gz 9.73MB Simrad multibeam vendor format
0447_20130130_234115_raw.all.mb56.gz 10.79MB Simrad multibeam vendor format
0448_20130131_004115_raw.all.mb56.gz 14.73MB Simrad multibeam vendor format
0449_20130131_014115_raw.all.mb56.gz 17.18MB Simrad multibeam vendor format
0450_20130131_024115_raw.all.mb56.gz 16.98MB Simrad multibeam vendor format
0451_20130131_034115_raw.all.mb56.gz 17.81MB Simrad multibeam vendor format
0452_20130131_044115_raw.all.mb56.gz 18.12MB Simrad multibeam vendor format
0453_20130131_054115_raw.all.mb56.gz 18.08MB Simrad multibeam vendor format
0454_20130131_064115_raw.all.mb56.gz 17.99MB Simrad multibeam vendor format
0455_20130131_074115_raw.all.mb56.gz 18.09MB Simrad multibeam vendor format
0456_20130131_084115_raw.all.mb56.gz 17.93MB Simrad multibeam vendor format
0457_20130131_094115_raw.all.mb56.gz 17.71MB Simrad multibeam vendor format
0458_20130131_104115_raw.all.mb56.gz 17.83MB Simrad multibeam vendor format
0459_20130131_114115_raw.all.mb56.gz 17.92MB Simrad multibeam vendor format
0460_20130131_124115_raw.all.mb56.gz 3.75MB Simrad multibeam vendor format
0461_20130131_125338_raw.all.mb56.gz 18.42MB Simrad multibeam vendor format
0462_20130131_135338_raw.all.mb56.gz 18.99MB Simrad multibeam vendor format
0463_20130131_145338_raw.all.mb56.gz 19.31MB Simrad multibeam vendor format
0464_20130131_155338_raw.all.mb56.gz 19.16MB Simrad multibeam vendor format
0465_20130131_165338_raw.all.mb56.gz 19.38MB Simrad multibeam vendor format
0466_20130131_175338_raw.all.mb56.gz 19.81MB Simrad multibeam vendor format
0467_20130131_185338_raw.all.mb56.gz 19.95MB Simrad multibeam vendor format
0468_20130131_195338_raw.all.mb56.gz 16.63MB Simrad multibeam vendor format
0469_20130131_205338_raw.all.mb56.gz 18.49MB Simrad multibeam vendor format
0470_20130131_215338_raw.all.mb56.gz 19.73MB Simrad multibeam vendor format
0471_20130131_225338_raw.all.mb56.gz 19.54MB Simrad multibeam vendor format
0472_20130131_235337_raw.all.mb56.gz 18.85MB Simrad multibeam vendor format
0473_20130201_005337_raw.all.mb56.gz 19.12MB Simrad multibeam vendor format
0474_20130201_015337_raw.all.mb56.gz 19.13MB Simrad multibeam vendor format
0475_20130201_025337_raw.all.mb56.gz 19.06MB Simrad multibeam vendor format
0476_20130201_035338_raw.all.mb56.gz 18.78MB Simrad multibeam vendor format
0477_20130201_045337_raw.all.mb56.gz 17.82MB Simrad multibeam vendor format
0478_20130201_055337_raw.all.mb56.gz 18.38MB Simrad multibeam vendor format
0479_20130201_065337_raw.all.mb56.gz 18.59MB Simrad multibeam vendor format
0480_20130201_075337_raw.all.mb56.gz 18.93MB Simrad multibeam vendor format
0481_20130201_085337_raw.all.mb56.gz 18.91MB Simrad multibeam vendor format
0482_20130201_095337_raw.all.mb56.gz 20.14MB Simrad multibeam vendor format
0483_20130201_105337_raw.all.mb56.gz 20.45MB Simrad multibeam vendor format
0484_20130201_115337_raw.all.mb56.gz 19.58MB Simrad multibeam vendor format
0485_20130201_125337_raw.all.mb56.gz 19.60MB Simrad multibeam vendor format
0486_20130201_135337_raw.all.mb56.gz 19.79MB Simrad multibeam vendor format
0487_20130201_145337_raw.all.mb56.gz 19.75MB Simrad multibeam vendor format
0488_20130201_155337_raw.all.mb56.gz 19.81MB Simrad multibeam vendor format
0489_20130201_165337_raw.all.mb56.gz 19.45MB Simrad multibeam vendor format
0490_20130201_175337_raw.all.mb56.gz 19.83MB Simrad multibeam vendor format
0491_20130201_185337_raw.all.mb56.gz 18.97MB Simrad multibeam vendor format
0492_20130201_195337_raw.all.mb56.gz 20.11MB Simrad multibeam vendor format
0493_20130201_205337_raw.all.mb56.gz 20.56MB Simrad multibeam vendor format
0494_20130201_215337_raw.all.mb56.gz 20.56MB Simrad multibeam vendor format
0495_20130201_225337_raw.all.mb56.gz 19.64MB Simrad multibeam vendor format
0496_20130201_235337_raw.all.mb56.gz 19.08MB Simrad multibeam vendor format
0497_20130202_005337_raw.all.mb56.gz 18.89MB Simrad multibeam vendor format
0498_20130202_015337_raw.all.mb56.gz 18.81MB Simrad multibeam vendor format
0499_20130202_025337_raw.all.mb56.gz 18.80MB Simrad multibeam vendor format
0500_20130202_035337_raw.all.mb56.gz 18.85MB Simrad multibeam vendor format
0501_20130202_045337_raw.all.mb56.gz 18.65MB Simrad multibeam vendor format
0502_20130202_055337_raw.all.mb56.gz 18.69MB Simrad multibeam vendor format
0503_20130202_065337_raw.all.mb56.gz 18.67MB Simrad multibeam vendor format
0504_20130202_075337_raw.all.mb56.gz 18.71MB Simrad multibeam vendor format
0505_20130202_085337_raw.all.mb56.gz 18.51MB Simrad multibeam vendor format
0506_20130202_095337_raw.all.mb56.gz 18.67MB Simrad multibeam vendor format
0507_20130202_105337_raw.all.mb56.gz 18.61MB Simrad multibeam vendor format
0508_20130202_115337_raw.all.mb56.gz 16.22MB Simrad multibeam vendor format
0509_20130202_124559_raw.all.mb56.gz 18.61MB Simrad multibeam vendor format
0510_20130202_134603_raw.all.mb56.gz 18.56MB Simrad multibeam vendor format
0511_20130202_144603_raw.all.mb56.gz 18.76MB Simrad multibeam vendor format
0512_20130202_154603_raw.all.mb56.gz 19.34MB Simrad multibeam vendor format
0513_20130202_164603_raw.all.mb56.gz 19.27MB Simrad multibeam vendor format
0514_20130202_174603_raw.all.mb56.gz 19.09MB Simrad multibeam vendor format
0515_20130202_184603_raw.all.mb56.gz 18.80MB Simrad multibeam vendor format
0516_20130202_194603_raw.all.mb56.gz 18.83MB Simrad multibeam vendor format
0517_20130202_204603_raw.all.mb56.gz 18.14MB Simrad multibeam vendor format
0518_20130202_214603_raw.all.mb56.gz 18.05MB Simrad multibeam vendor format
0519_20130202_224603_raw.all.mb56.gz 17.83MB Simrad multibeam vendor format
0520_20130202_234603_raw.all.mb56.gz 18.10MB Simrad multibeam vendor format
0521_20130203_004603_raw.all.mb56.gz 18.79MB Simrad multibeam vendor format
0522_20130203_014603_raw.all.mb56.gz 18.75MB Simrad multibeam vendor format
0523_20130203_024603_raw.all.mb56.gz 18.65MB Simrad multibeam vendor format
0524_20130203_034603_raw.all.mb56.gz 18.80MB Simrad multibeam vendor format
0525_20130203_044603_raw.all.mb56.gz 18.08MB Simrad multibeam vendor format
0526_20130203_054603_raw.all.mb56.gz 18.04MB Simrad multibeam vendor format
0527_20130203_064603_raw.all.mb56.gz 18.39MB Simrad multibeam vendor format
0528_20130203_074603_raw.all.mb56.gz 18.18MB Simrad multibeam vendor format
0529_20130203_084603_raw.all.mb56.gz 18.64MB Simrad multibeam vendor format
0530_20130203_094603_raw.all.mb56.gz 18.77MB Simrad multibeam vendor format
0531_20130203_104603_raw.all.mb56.gz 18.49MB Simrad multibeam vendor format
0532_20130203_114603_raw.all.mb56.gz 18.34MB Simrad multibeam vendor format
0533_20130203_124603_raw.all.mb56.gz 18.13MB Simrad multibeam vendor format
0534_20130203_134603_raw.all.mb56.gz 17.45MB Simrad multibeam vendor format
0535_20130203_144603_raw.all.mb56.gz 18.29MB Simrad multibeam vendor format
0536_20130203_154603_raw.all.mb56.gz 18.44MB Simrad multibeam vendor format
0537_20130203_164603_raw.all.mb56.gz 19.16MB Simrad multibeam vendor format
0538_20130203_174603_raw.all.mb56.gz 19.33MB Simrad multibeam vendor format
0540_20130203_194603_raw.all.mb56.gz 18.66MB Simrad multibeam vendor format
0541_20130203_204603_raw.all.mb56.gz 18.62MB Simrad multibeam vendor format
0542_20130203_214603_raw.all.mb56.gz 18.79MB Simrad multibeam vendor format
0543_20130203_224603_raw.all.mb56.gz 19.73MB Simrad multibeam vendor format
0544_20130203_234603_raw.all.mb56.gz 19.72MB Simrad multibeam vendor format
0545_20130204_004603_raw.all.mb56.gz 19.62MB Simrad multibeam vendor format
0546_20130204_014603_raw.all.mb56.gz 18.63MB Simrad multibeam vendor format
0547_20130204_024603_raw.all.mb56.gz 18.14MB Simrad multibeam vendor format
0548_20130204_034603_raw.all.mb56.gz 17.97MB Simrad multibeam vendor format
0549_20130204_044603_raw.all.mb56.gz 18.20MB Simrad multibeam vendor format
0550_20130204_054603_raw.all.mb56.gz 17.96MB Simrad multibeam vendor format
0551_20130204_064603_raw.all.mb56.gz 18.14MB Simrad multibeam vendor format
0552_20130204_074603_raw.all.mb56.gz 18.08MB Simrad multibeam vendor format
0553_20130204_084603_raw.all.mb56.gz 17.74MB Simrad multibeam vendor format
0554_20130204_094603_raw.all.mb56.gz 17.92MB Simrad multibeam vendor format
0555_20130204_104603_raw.all.mb56.gz 17.14MB Simrad multibeam vendor format
0556_20130204_114520_raw.all.mb56.gz 16.23MB Simrad multibeam vendor format
0557_20130204_124520_raw.all.mb56.gz 15.80MB Simrad multibeam vendor format
0558_20130204_134520_raw.all.mb56.gz 14.66MB Simrad multibeam vendor format
0559_20130204_144520_raw.all.mb56.gz 14.86MB Simrad multibeam vendor format
0560_20130204_154520_raw.all.mb56.gz 15.83MB Simrad multibeam vendor format
0561_20130204_164520_raw.all.mb56.gz 16.42MB Simrad multibeam vendor format
0562_20130204_174520_raw.all.mb56.gz 5.47MB Simrad multibeam vendor format
0563_20130204_181617_raw.all.mb56.gz 3.03MB Simrad multibeam vendor format
0564_20130204_183526_raw.all.mb56.gz 15.34MB Simrad multibeam vendor format
0565_20130204_193526_raw.all.mb56.gz 14.48MB Simrad multibeam vendor format
0566_20130204_203526_raw.all.mb56.gz 15.25MB Simrad multibeam vendor format
0567_20130204_213526_raw.all.mb56.gz 14.38MB Simrad multibeam vendor format
0568_20130204_223526_raw.all.mb56.gz 15.87MB Simrad multibeam vendor format
0569_20130204_233526_raw.all.mb56.gz 15.61MB Simrad multibeam vendor format
0570_20130205_003526_raw.all.mb56.gz 12.03MB Simrad multibeam vendor format
0571_20130205_013526_raw.all.mb56.gz 11.68MB Simrad multibeam vendor format
0572_20130205_023526_raw.all.mb56.gz 11.81MB Simrad multibeam vendor format
0573_20130205_033526_raw.all.mb56.gz 12.83MB Simrad multibeam vendor format
0574_20130205_043526_raw.all.mb56.gz 14.22MB Simrad multibeam vendor format
0575_20130205_053526_raw.all.mb56.gz 14.80MB Simrad multibeam vendor format
0576_20130205_063526_raw.all.mb56.gz 14.22MB Simrad multibeam vendor format
0577_20130205_073526_raw.all.mb56.gz 15.33MB Simrad multibeam vendor format
0578_20130205_083526_raw.all.mb56.gz 17.68MB Simrad multibeam vendor format
0579_20130205_093526_raw.all.mb56.gz 18.66MB Simrad multibeam vendor format
0580_20130205_103526_raw.all.mb56.gz 12.79MB Simrad multibeam vendor format
0581_20130205_111646_raw.all.mb56.gz 18.46MB Simrad multibeam vendor format
0582_20130205_121646_raw.all.mb56.gz 17.84MB Simrad multibeam vendor format
0583_20130205_131646_raw.all.mb56.gz 17.96MB Simrad multibeam vendor format
0584_20130205_141646_raw.all.mb56.gz 18.52MB Simrad multibeam vendor format
0585_20130205_151646_raw.all.mb56.gz 18.22MB Simrad multibeam vendor format
0586_20130205_161646_raw.all.mb56.gz 18.88MB Simrad multibeam vendor format
0587_20130205_171646_raw.all.mb56.gz 19.32MB Simrad multibeam vendor format
0588_20130205_181646_raw.all.mb56.gz 19.91MB Simrad multibeam vendor format
0589_20130205_191646_raw.all.mb56.gz 20.29MB Simrad multibeam vendor format
0590_20130205_201646_raw.all.mb56.gz 20.30MB Simrad multibeam vendor format
0591_20130205_211646_raw.all.mb56.gz 19.43MB Simrad multibeam vendor format
0592_20130205_221646_raw.all.mb56.gz 18.18MB Simrad multibeam vendor format
0593_20130205_231646_raw.all.mb56.gz 18.19MB Simrad multibeam vendor format
0594_20130206_001646_raw.all.mb56.gz 18.76MB Simrad multibeam vendor format
0595_20130206_011646_raw.all.mb56.gz 18.88MB Simrad multibeam vendor format
0596_20130206_021646_raw.all.mb56.gz 19.28MB Simrad multibeam vendor format
0597_20130206_031646_raw.all.mb56.gz 19.41MB Simrad multibeam vendor format
0598_20130206_041646_raw.all.mb56.gz 18.84MB Simrad multibeam vendor format
0599_20130206_051646_raw.all.mb56.gz 19.33MB Simrad multibeam vendor format
0600_20130206_061646_raw.all.mb56.gz 17.06MB Simrad multibeam vendor format
0601_20130206_071646_raw.all.mb56.gz 14.19MB Simrad multibeam vendor format
0602_20130206_081646_raw.all.mb56.gz 15.69MB Simrad multibeam vendor format
0603_20130206_091646_raw.all.mb56.gz 13.84MB Simrad multibeam vendor format
0604_20130206_101646_raw.all.mb56.gz 15.45MB Simrad multibeam vendor format
0605_20130206_111646_raw.all.mb56.gz 18.36MB Simrad multibeam vendor format
0606_20130206_121646_raw.all.mb56.gz 21.16MB Simrad multibeam vendor format
0607_20130206_131646_raw.all.mb56.gz 19.81MB Simrad multibeam vendor format
0608_20130206_141646_raw.all.mb56.gz 20.78MB Simrad multibeam vendor format
0609_20130206_151646_raw.all.mb56.gz 19.96MB Simrad multibeam vendor format
0610_20130206_161646_raw.all.mb56.gz 15.72MB Simrad multibeam vendor format
0611_20130206_171646_raw.all.mb56.gz 15.18MB Simrad multibeam vendor format
0612_20130206_181646_raw.all.mb56.gz 15.68MB Simrad multibeam vendor format
0613_20130206_191646_raw.all.mb56.gz 14.02MB Simrad multibeam vendor format
0614_20130206_201646_raw.all.mb56.gz 13.09MB Simrad multibeam vendor format
0615_20130206_211646_raw.all.mb56.gz 12.63MB Simrad multibeam vendor format
0616_20130206_221646_raw.all.mb56.gz 13.09MB Simrad multibeam vendor format
0617_20130206_231646_raw.all.mb56.gz 13.14MB Simrad multibeam vendor format
0618_20130207_001646_raw.all.mb56.gz 13.18MB Simrad multibeam vendor format
0619_20130207_011646_raw.all.mb56.gz 13.18MB Simrad multibeam vendor format
0620_20130207_021646_raw.all.mb56.gz 13.06MB Simrad multibeam vendor format
0621_20130207_031646_raw.all.mb56.gz 13.16MB Simrad multibeam vendor format
0622_20130207_041646_raw.all.mb56.gz 13.04MB Simrad multibeam vendor format
0623_20130207_051646_raw.all.mb56.gz 13.24MB Simrad multibeam vendor format
0624_20130207_061646_raw.all.mb56.gz 14.10MB Simrad multibeam vendor format
0625_20130207_071646_raw.all.mb56.gz 14.42MB Simrad multibeam vendor format
0626_20130207_081646_raw.all.mb56.gz 13.90MB Simrad multibeam vendor format
0627_20130207_091646_raw.all.mb56.gz 13.23MB Simrad multibeam vendor format
0628_20130207_101646_raw.all.mb56.gz 13.33MB Simrad multibeam vendor format
0629_20130207_111646_raw.all.mb56.gz 11.82MB Simrad multibeam vendor format
0630_20130207_121646_raw.all.mb56.gz 19.90MB Simrad multibeam vendor format
0631_20130207_131646_raw.all.mb56.gz 20.74MB Simrad multibeam vendor format
0632_20130207_141646_raw.all.mb56.gz 20.18MB Simrad multibeam vendor format
0633_20130207_151646_raw.all.mb56.gz 18.80MB Simrad multibeam vendor format
0634_20130207_161646_raw.all.mb56.gz 17.52MB Simrad multibeam vendor format
0635_20130207_171646_raw.all.mb56.gz 16.15MB Simrad multibeam vendor format
0636_20130207_181646_raw.all.mb56.gz 14.34MB Simrad multibeam vendor format
0637_20130207_191646_raw.all.mb56.gz 13.90MB Simrad multibeam vendor format
0638_20130207_201646_raw.all.mb56.gz 13.64MB Simrad multibeam vendor format
0639_20130207_211646_raw.all.mb56.gz 7.81MB Simrad multibeam vendor format

Metadata Files: 3

Files File Size Description
NBP1210_Multibeam.xml NGDC created ISO metadata
NBP1210.xml 16.7KB XML metadata file
mb_bag_info.tar.gz 17.7KB Additional cruise information